| time (UTC) | temp F | wind direction | speed MPH | gust MPH | rain 1hr in | rain 24hr in | rain mn in | humidity % | barometer mb |
| 20260905055509 | 70 | 151 | 13.0 | 18.0 | 0.00 | 0.00 | 0.00 | 37 | 1000.6 |
| 20260905055009 | 70 | 166 | 13.0 | 21.0 | 0.00 | 0.00 | 0.00 | 37 | 1000.5 |
| 20260905054514 | 71 | 131 | 15.0 | 21.0 | 0.00 | 0.00 | 0.00 | 37 | 1000.5 |
| 20260905054006 | 71 | 147 | 13.0 | 21.0 | 0.00 | 0.00 | 0.00 | 36 | 1000.5 |
| 20260905053506 | 72 | 131 | 15.0 | 21.0 | 0.00 | 0.00 | 0.00 | 36 | 1000.4 |
| 20260905053007 | 72 | 148 | 14.0 | 22.0 | 0.00 | 0.00 | 0.00 | 35 | 1000.4 |
| 20260905052509 | 71 | 136 | 17.0 | 22.0 | 0.00 | 0.00 | 0.00 | 36 | 1000.4 |
| 20260905052006 | 70 | 129 | 10.0 | 18.0 | 0.00 | 0.00 | 0.00 | 37 | 1000.2 |
| 20260905051511 | 69 | 187 | 7.0 | 14.0 | 0.00 | 0.00 | 0.00 | 37 | 1000.2 |
| 20260905051004 | 70 | 149 | 9.0 | 14.0 | 0.00 | 0.00 | 0.00 | 36 | 1000.3 |
| 20260905050507 | 72 | 156 | 9.0 | 24.0 | 0.00 | 0.00 | 0.00 | 35 | 1000.3 |
| 20260905050004 | 74 | 158 | 14.0 | 24.0 | 0.00 | 0.00 | 0.00 | 34 | 1000.2 |
| 20260905045505 | 74 | 112 | 18.0 | 27.0 | 0.00 | 0.00 | 0.00 | 33 | 999.9 |
| 20260905045006 | 73 | 105 | 20.0 | 27.0 | 0.00 | 0.00 | 0.00 | 34 | 1000.0 |
| 20260905044504 | 73 | 127 | 8.0 | 23.0 | 0.00 | 0.00 | 0.00 | 34 | 1000.2 |
| 20260905044004 | 73 | 176 | 15.0 | 23.0 | 0.00 | 0.00 | 0.00 | 33 | 1000.2 |
| 20260905043504 | 71 | 171 | 10.0 | 16.0 | 0.00 | 0.00 | 0.00 | 35 | 1000.2 |
| 20260905043003 | 71 | 149 | 8.0 | 15.0 | 0.00 | 0.00 | 0.00 | 34 | 1000.3 |
| 20260905042504 | 72 | 158 | 9.0 | 15.0 | 0.00 | 0.00 | 0.00 | 34 | 1000.3 |
| 20260905042002 | 72 | 163 | 9.0 | 14.0 | 0.00 | 0.00 | 0.00 | 34 | 1000.1 |
| 20260905041502 | 71 | 149 | 9.0 | 14.0 | 0.00 | 0.00 | 0.00 | 35 | 1000.1 |
| 20260905041001 | 71 | 152 | 10.0 | 18.0 | 0.00 | 0.00 | 0.00 | 35 | 1000.2 |
| 20260905040502 | 70 | 141 | 9.0 | 18.0 | 0.00 | 0.00 | 0.00 | 33 | 1000.2 |
| 20260905040100 | 71 | 162 | 8.0 | 14.0 | 0.00 | 0.00 | 0.00 | 33 | 1000.1 |
| 20260905035600 | 71 | 159 | 8.0 | 14.0 | 0.00 | 0.00 | 0.00 | 33 | 1000.1 |
| 20260905035105 | 71 | 149 | 9.0 | 12.0 | 0.00 | 0.00 | 0.00 | 33 | 1000.1 |
| 20260905034611 | 71 | 132 | 7.0 | 11.0 | 0.00 | 0.00 | 0.00 | 34 | 999.9 |
| 20260905034058 | 72 | 136 | 8.0 | 11.0 | 0.00 | 0.00 | 0.00 | 31 | 999.9 |
| 20260905033559 | 73 | 157 | 6.0 | 15.0 | 0.00 | 0.00 | 0.00 | 31 | 999.9 |
| 20260905033101 | 75 | 119 | 7.0 | 20.0 | 0.00 | 0.00 | 0.00 | 31 | 999.9 |
| 20260905032559 | 76 | 144 | 10.0 | 20.0 | 0.00 | 0.00 | 0.00 | 29 | 999.8 |
| 20260905032058 | 76 | 157 | 11.0 | 19.0 | 0.00 | 0.00 | 0.00 | 29 | 999.7 |
| 20260905031606 | 77 | 179 | 11.0 | 22.0 | 0.00 | 0.00 | 0.00 | 28 | 999.7 |
| 20260905031058 | 77 | 182 | 13.0 | 22.0 | 0.00 | 0.00 | 0.00 | 28 | 999.6 |
| 20260905030558 | 76 | 180 | 11.0 | 19.0 | 0.00 | 0.00 | 0.00 | 28 | 999.6 |
| 20260905030058 | 76 | 165 | 9.0 | 17.0 | 0.00 | 0.00 | 0.00 | 28 | 999.4 |
| 20260905025558 | 76 | 169 | 8.0 | 13.0 | 0.00 | 0.00 | 0.00 | 28 | 999.4 |
| 20260905025059 | 76 | 145 | 8.0 | 18.0 | 0.00 | 0.00 | 0.00 | 28 | 999.2 |
| 20260905024602 | 76 | 161 | 10.0 | 19.0 | 0.00 | 0.00 | 0.00 | 28 | 999.0 |
| 20260905024057 | 76 | 170 | 11.0 | 20.0 | 0.00 | 0.00 | 0.00 | 28 | 999.0 |
| 20260905023559 | 75 | 147 | 8.0 | 17.0 | 0.00 | 0.00 | 0.00 | 29 | 998.9 |
| 20260905023100 | 75 | 143 | 10.0 | 17.0 | 0.00 | 0.00 | 0.00 | 29 | 998.8 |
| 20260905022556 | 75 | 141 | 9.0 | 14.0 | 0.00 | 0.00 | 0.00 | 30 | 998.7 |
| 20260905022058 | 76 | 135 | 10.0 | 16.0 | 0.00 | 0.00 | 0.00 | 30 | 998.7 |
| 20260905021558 | 76 | 148 | 10.0 | 16.0 | 0.00 | 0.00 | 0.00 | 29 | 998.7 |
| 20260905021055 | 77 | 152 | 12.0 | 18.0 | 0.00 | 0.00 | 0.00 | 28 | 998.6 |
| 20260905020555 | 77 | 152 | 13.0 | 18.0 | 0.00 | 0.00 | 0.00 | 28 | 998.6 |
| 20260905020055 | 77 | 152 | 10.0 | 15.0 | 0.00 | 0.00 | 0.00 | 28 | 998.6 |
| 20260905015555 | 78 | 166 | 11.0 | 17.0 | 0.00 | 0.00 | 0.00 | 27 | 998.5 |
| 20260905015055 | 78 | 159 | 13.0 | 21.0 | 0.00 | 0.00 | 0.00 | 28 | 998.4 |
| 20260905014554 | 78 | 157 | 13.0 | 23.0 | 0.00 | 0.00 | 0.00 | 28 | 998.4 |
| 20260905014054 | 79 | 156 | 13.0 | 23.0 | 0.00 | 0.00 | 0.00 | 28 | 998.4 |
| 20260905013554 | 79 | 172 | 12.0 | 20.0 | 0.00 | 0.00 | 0.00 | 28 | 998.4 |
| 20260905013054 | 80 | 161 | 14.0 | 21.0 | 0.00 | 0.00 | 0.00 | 27 | 998.3 |
| 20260905012554 | 80 | 164 | 13.0 | 25.0 | 0.00 | 0.00 | 0.00 | 28 | 998.3 |
| 20260905012054 | 81 | 162 | 18.0 | 25.0 | 0.00 | 0.00 | 0.00 | 27 | 998.3 |
| 20260905011556 | 81 | 169 | 15.0 | 25.0 | 0.00 | 0.00 | 0.00 | 27 | 998.3 |
| 20260905011054 | 81 | 134 | 19.0 | 28.0 | 0.00 | 0.00 | 0.00 | 27 | 998.3 |
| 20260905010553 | 81 | 179 | 17.0 | 30.0 | 0.00 | 0.00 | 0.00 | 27 | 998.3 |
| 20260905010054 | 82 | 180 | 22.0 | 30.0 | 0.00 | 0.00 | 0.00 | 27 | 998.3 |
| 20260905005552 | 82 | 181 | 14.0 | 27.0 | 0.00 | 0.00 | 0.00 | 26 | 998.2 |
| 20260905005052 | 82 | 193 | 18.0 | 27.0 | 0.00 | 0.00 | 0.00 | 26 | 998.2 |
| 20260905004552 | 83 | 167 | 16.0 | 28.0 | 0.00 | 0.00 | 0.00 | 26 | 998.3 |
| 20260905004049 | 83 | 176 | 18.0 | 28.0 | 0.00 | 0.00 | 0.00 | 26 | 998.3 |
| 20260905003548 | 83 | 172 | 20.0 | 29.0 | 0.00 | 0.00 | 0.00 | 27 | 998.2 |
| 20260905003049 | 83 | 181 | 19.0 | 38.0 | 0.00 | 0.00 | 0.00 | 27 | 998.2 |
| 20260905002549 | 83 | 171 | 25.0 | 38.0 | 0.00 | 0.00 | 0.00 | 26 | 998.3 |
| 20260905002046 | 84 | 173 | 19.0 | 31.0 | 0.00 | 0.00 | 0.00 | 26 | 998.3 |
| 20260905001554 | 84 | 180 | 22.0 | 31.0 | 0.00 | 0.00 | 0.00 | 25 | 998.4 |
| 20260905001045 | 84 | 159 | 15.0 | 26.0 | 0.00 | 0.00 | 0.00 | 26 | 998.3 |
| 20260905000545 | 84 | 163 | 18.0 | 24.0 | 0.00 | 0.00 | 0.00 | 26 | 998.3 |
| 20260905000048 | 84 | 172 | 18.0 | 30.0 | 0.00 | 0.00 | 0.00 | 26 | 998.3 |
| 20260904235548 | 84 | 155 | 19.0 | 35.0 | 0.00 | 0.00 | 0.00 | 26 | 998.4 |
| 20260904235043 | 84 | 196 | 24.0 | 35.0 | 0.00 | 0.00 | 0.00 | 26 | 998.4 |
| 20260904234543 | 84 | 153 | 19.0 | 31.0 | 0.00 | 0.00 | 0.00 | 26 | 998.4 |
| 20260904234042 | 84 | 174 | 20.0 | 30.0 | 0.00 | 0.00 | 0.00 | 26 | 998.5 |
| 20260904233542 | 84 | 175 | 16.0 | 29.0 | 0.00 | 0.00 | 0.00 | 26 | 998.5 |
| 20260904233044 | 84 | 189 | 20.0 | 28.0 | 0.00 | 0.00 | 0.00 | 25 | 998.5 |
| 20260904232541 | 84 | 170 | 18.0 | 31.0 | 0.00 | 0.00 | 0.00 | 25 | 998.5 |
| 20260904232041 | 85 | 153 | 23.0 | 31.0 | 0.00 | 0.00 | 0.00 | 25 | 998.6 |
| 20260904231551 | 85 | 174 | 21.0 | 28.0 | 0.00 | 0.00 | 0.00 | 24 | 998.5 |
| 20260904231039 | 84 | 181 | 19.0 | 32.0 | 0.00 | 0.00 | 0.00 | 25 | 998.6 |
| 20260904230539 | 85 | 140 | 21.0 | 31.0 | 0.00 | 0.00 | 0.00 | 24 | 998.5 |
| 20260904230039 | 85 | 146 | 21.0 | 31.0 | 0.00 | 0.00 | 0.00 | 25 | 998.7 |
| 20260904225539 | 85 | 159 | 20.0 | 30.0 | 0.00 | 0.00 | 0.00 | 24 | 998.6 |
| 20260904225036 | 85 | 145 | 18.0 | 30.0 | 0.00 | 0.00 | 0.00 | 25 | 998.6 |
| 20260904224546 | 85 | 177 | 19.0 | 31.0 | 0.00 | 0.00 | 0.00 | 25 | 998.8 |
| 20260904224037 | 84 | 151 | 19.0 | 25.0 | 0.00 | 0.00 | 0.00 | 24 | 998.8 |
| 20260904223534 | 84 | 158 | 14.0 | 27.0 | 0.00 | 0.00 | 0.00 | 26 | 998.8 |
| 20260904223036 | 84 | 145 | 21.0 | 35.0 | 0.00 | 0.00 | 0.00 | 26 | 998.8 |
| 20260904222536 | 84 | 138 | 23.0 | 30.0 | 0.00 | 0.00 | 0.00 | 25 | 998.9 |
| 20260904222032 | 84 | 151 | 23.0 | 33.0 | 0.00 | 0.00 | 0.00 | 25 | 999.0 |
| 20260904221532 | 84 | 179 | 20.0 | 32.0 | 0.00 | 0.00 | 0.00 | 24 | 999.1 |
| 20260904221032 | 84 | 145 | 20.0 | 31.0 | 0.00 | 0.00 | 0.00 | 26 | 999.0 |
| 20260904220532 | 84 | 145 | 20.0 | 27.0 | 0.00 | 0.00 | 0.00 | 25 | 999.1 |
| 20260904220030 | 84 | 169 | 20.0 | 31.0 | 0.00 | 0.00 | 0.00 | 25 | 999.1 |
| 20260904215530 | 83 | 143 | 20.0 | 31.0 | 0.00 | 0.00 | 0.00 | 26 | 999.1 |
| 20260904215029 | 84 | 138 | 18.0 | 35.0 | 0.00 | 0.00 | 0.00 | 26 | 999.3 |
| 20260904214528 | 83 | 168 | 18.0 | 35.0 | 0.00 | 0.00 | 0.00 | 25 | 999.3 |
| 20260904214026 | 83 | 144 | 16.0 | 33.0 | 0.00 | 0.00 | 0.00 | 26 | 999.3 |
| 20260904213529 | 82 | 157 | 24.0 | 33.0 | 0.00 | 0.00 | 0.00 | 25 | 999.4 |
| 20260904213028 | 83 | 140 | 21.0 | 32.0 | 0.00 | 0.00 | 0.00 | 25 | 999.4 |
| 20260904212527 | 83 | 136 | 19.0 | 31.0 | 0.00 | 0.00 | 0.00 | 25 | 999.5 |
| 20260904212024 | 84 | 150 | 22.0 | 31.0 | 0.00 | 0.00 | 0.00 | 25 | 999.7 |
| 20260904211523 | 84 | 166 | 16.0 | 24.0 | 0.00 | 0.00 | 0.00 | 24 | 999.6 |
| 20260904211026 | 83 | 165 | 19.0 | 29.0 | 0.00 | 0.00 | 0.00 | 25 | 999.8 |
| 20260904210521 | 83 | 135 | 18.0 | 29.0 | 0.00 | 0.00 | 0.00 | 25 | 999.7 |
| 20260904210021 | 83 | 177 | 19.0 | 27.0 | 0.00 | 0.00 | 0.00 | 25 | 999.9 |
| 20260904205521 | 83 | 161 | 19.0 | 25.0 | 0.00 | 0.00 | 0.00 | 25 | 999.8 |
| 20260904205020 | 82 | 163 | 17.0 | 35.0 | 0.00 | 0.00 | 0.00 | 25 | 999.9 |
| 20260904204518 | 82 | 147 | 22.0 | 35.0 | 0.00 | 0.00 | 0.00 | 25 | 999.9 |
| 20260904204018 | 82 | 174 | 21.0 | 30.0 | 0.00 | 0.00 | 0.00 | 24 | 1000.1 |
| 20260904203518 | 83 | 154 | 16.0 | 28.0 | 0.00 | 0.00 | 0.00 | 25 | 1000.1 |
| 20260904203016 | 82 | 171 | 17.0 | 26.0 | 0.00 | 0.00 | 0.00 | 25 | 1000.1 |
| 20260904202517 | 81 | 174 | 19.0 | 28.0 | 0.00 | 0.00 | 0.00 | 27 | 1000.0 |
| 20260904202014 | 80 | 124 | 15.0 | 30.0 | 0.00 | 0.00 | 0.00 | 27 | 1000.2 |
| 20260904201514 | 80 | 136 | 20.0 | 32.0 | 0.00 | 0.00 | 0.00 | 27 | 1000.2 |
| 20260904201013 | 80 | 147 | 20.0 | 34.0 | 0.00 | 0.00 | 0.00 | 27 | 1000.4 |
| 20260904200517 | 80 | 163 | 18.0 | 32.0 | 0.00 | 0.00 | 0.00 | 28 | 1000.4 |
| 20260904200013 | 80 | 163 | 18.0 | 32.0 | 0.00 | 0.00 | 0.00 | 26 | 1000.6 |
| 20260904195513 | 80 | 170 | 20.0 | 38.0 | 0.00 | 0.00 | 0.00 | 26 | 1000.5 |
| 20260904195012 | 79 | 188 | 22.0 | 38.0 | 0.00 | 0.00 | 0.00 | 26 | 1000.5 |
| 20260904194512 | 80 | 141 | 18.0 | 31.0 | 0.00 | 0.00 | 0.00 | 26 | 1000.5 |
| 20260904194012 | 80 | 163 | 23.0 | 35.0 | 0.00 | 0.00 | 0.00 | 25 | 1000.6 |
| 20260904193512 | 81 | 142 | 24.0 | 35.0 | 0.00 | 0.00 | 0.00 | 25 | 1000.6 |
| 20260904193011 | 82 | 141 | 20.0 | 29.0 | 0.00 | 0.00 | 0.00 | 24 | 1000.6 |
| 20260904192510 | 81 | 179 | 21.0 | 29.0 | 0.00 | 0.00 | 0.00 | 25 | 1000.7 |
| 20260904192010 | 79 | 165 | 23.0 | 33.0 | 0.00 | 0.00 | 0.00 | 26 | 1000.8 |
| 20260904191511 | 80 | 132 | 21.0 | 33.0 | 0.00 | 0.00 | 0.00 | 26 | 1000.7 |
| 20260904191009 | 79 | 151 | 19.0 | 31.0 | 0.00 | 0.00 | 0.00 | 28 | 1000.8 |
| 20260904190509 | 79 | 132 | 22.0 | 31.0 | 0.00 | 0.00 | 0.00 | 28 | 1000.9 |
| 20260904190010 | 79 | 150 | 16.0 | 31.0 | 0.00 | 0.00 | 0.00 | 27 | 1001.1 |
| 20260904185507 | 78 | 139 | 22.0 | 34.0 | 0.00 | 0.00 | 0.00 | 28 | 1001.2 |
| 20260904185007 | 78 | 149 | 18.0 | 34.0 | 0.00 | 0.00 | 0.00 | 29 | 1001.3 |
| 20260904184507 | 78 | 122 | 18.0 | 31.0 | 0.00 | 0.00 | 0.00 | 28 | 1001.2 |
| 20260904184007 | 78 | 164 | 21.0 | 31.0 | 0.00 | 0.00 | 0.00 | 27 | 1001.2 |
| 20260904183506 | 78 | 150 | 26.0 | 33.0 | 0.00 | 0.00 | 0.00 | 26 | 1001.3 |
| 20260904183012 | 79 | 159 | 20.0 | 29.0 | 0.00 | 0.00 | 0.00 | 27 | 1001.3 |
| 20260904182505 | 79 | 184 | 21.0 | 29.0 | 0.00 | 0.00 | 0.00 | 26 | 1001.4 |
| 20260904182005 | 78 | 134 | 24.0 | 31.0 | 0.00 | 0.00 | 0.00 | 28 | 1001.3 |
| 20260904181508 | 79 | 181 | 24.0 | 30.0 | 0.00 | 0.00 | 0.00 | 26 | 1001.4 |
| 20260904181008 | 79 | 151 | 18.0 | 30.0 | 0.00 | 0.00 | 0.00 | 27 | 1001.3 |
| 20260904180503 | 78 | 182 | 24.0 | 33.0 | 0.00 | 0.00 | 0.00 | 26 | 1001.5 |
| 20260904180004 | 78 | 165 | 23.0 | 35.0 | 0.00 | 0.00 | 0.00 | 27 | 1001.6 |
| 20260904175505 | 78 | 145 | 26.0 | 35.0 | 0.00 | 0.00 | 0.00 | 28 | 1001.5 |
| 20260904175002 | 78 | 161 | 22.0 | 35.0 | 0.00 | 0.00 | 0.00 | 27 | 1001.6 |
| 20260904174501 | 77 | 173 | 22.0 | 31.0 | 0.00 | 0.00 | 0.00 | 27 | 1001.6 |
| 20260904174001 | 77 | 182 | 26.0 | 32.0 | 0.00 | 0.00 | 0.00 | 27 | 1001.6 |
| 20260904173503 | 77 | 145 | 21.0 | 31.0 | 0.00 | 0.00 | 0.00 | 29 | 1001.6 |
| 20260904173003 | 77 | 168 | 22.0 | 33.0 | 0.00 | 0.00 | 0.00 | 29 | 1001.6 |
| 20260904172503 | 77 | 164 | 22.0 | 35.0 | 0.00 | 0.00 | 0.00 | 29 | 1001.5 |
| 20260904172001 | 77 | 169 | 20.0 | 35.0 | 0.00 | 0.00 | 0.00 | 30 | 1001.6 |
| 20260904171602 | 77 | 147 | 25.0 | 36.0 | 0.00 | 0.00 | 0.00 | 28 | 1001.6 |
| 20260904171500 | 77 | 163 | 22.0 | 36.0 | 0.00 | 0.00 | 0.00 | 29 | 1001.6 |
| 20260904171100 | 76 | 145 | 24.0 | 36.0 | 0.00 | 0.00 | 0.00 | 29 | 1001.6 |
| 20260904170600 | 77 | 183 | 23.0 | 31.0 | 0.00 | 0.00 | 0.00 | 27 | 1001.6 |
| 20260904170100 | 76 | 165 | 25.0 | 39.0 | 0.00 | 0.00 | 0.00 | 29 | 1001.5 |
| 20260904165600 | 76 | 158 | 26.0 | 39.0 | 0.00 | 0.00 | 0.00 | 28 | 1001.6 |
| 20260904165100 | 77 | 138 | 24.0 | 36.0 | 0.00 | 0.00 | 0.00 | 28 | 1001.6 |
| 20260904164558 | 77 | 182 | 21.0 | 29.0 | 0.00 | 0.00 | 0.00 | 27 | 1001.7 |
| 20260904164057 | 77 | 180 | 20.0 | 31.0 | 0.00 | 0.00 | 0.00 | 26 | 1001.7 |
| 20260904163557 | 76 | 171 | 20.0 | 31.0 | 0.00 | 0.00 | 0.00 | 27 | 1001.6 |
| 20260904163100 | 76 | 132 | 21.0 | 32.0 | 0.00 | 0.00 | 0.00 | 26 | 1001.8 |
| 20260904162558 | 76 | 182 | 23.0 | 31.0 | 0.00 | 0.00 | 0.00 | 24 | 1001.8 |
| 20260904162057 | 76 | 159 | 18.0 | 28.0 | 0.00 | 0.00 | 0.00 | 24 | 1001.8 |
| 20260904161609 | 76 | 165 | 22.0 | 28.0 | 0.00 | 0.00 | 0.00 | 24 | 1001.8 |
| 20260904161056 | 76 | 165 | 19.0 | 28.0 | 0.00 | 0.00 | 0.00 | 24 | 1001.8 |
| 20260904160556 | 76 | 171 | 14.0 | 29.0 | 0.00 | 0.00 | 0.00 | 25 | 1001.7 |
| 20260904160100 | 75 | 168 | 21.0 | 29.0 | 0.00 | 0.00 | 0.00 | 24 | 1001.8 |
| 20260904155555 | 75 | 155 | 18.0 | 29.0 | 0.00 | 0.00 | 0.00 | 25 | 1001.8 |
| 20260904155054 | 75 | 168 | 18.0 | 27.0 | 0.00 | 0.00 | 0.00 | 28 | 1001.7 |
| 20260904154553 | 75 | 181 | 19.0 | 27.0 | 0.00 | 0.00 | 0.00 | 24 | 1001.8 |
| 20260904154052 | 75 | 145 | 17.0 | 24.0 | 0.00 | 0.00 | 0.00 | 27 | 1001.7 |
| 20260904153551 | 74 | 156 | 16.0 | 23.0 | 0.00 | 0.00 | 0.00 | 28 | 1001.7 |
| 20260904153049 | 73 | 161 | 13.0 | 26.0 | 0.00 | 0.00 | 0.00 | 28 | 1001.8 |
| 20260904152549 | 73 | 136 | 16.0 | 30.0 | 0.00 | 0.00 | 0.00 | 28 | 1001.8 |
| 20260904152049 | 73 | 165 | 18.0 | 29.0 | 0.00 | 0.00 | 0.00 | 27 | 1001.9 |
| 20260904151550 | 73 | 156 | 16.0 | 26.0 | 0.00 | 0.00 | 0.00 | 26 | 1001.8 |
| 20260904151046 | 73 | 174 | 18.0 | 31.0 | 0.00 | 0.00 | 0.00 | 27 | 1001.9 |
| 20260904150546 | 72 | 163 | 23.0 | 31.0 | 0.00 | 0.00 | 0.00 | 27 | 1001.8 |
| 20260904150046 | 71 | 138 | 17.0 | 25.0 | 0.00 | 0.00 | 0.00 | 31 | 1001.9 |
| 20260904145546 | 70 | 143 | 15.0 | 24.0 | 0.00 | 0.00 | 0.00 | 30 | 1001.9 |
| 20260904145046 | 70 | 121 | 17.0 | 24.0 | 0.00 | 0.00 | 0.00 | 34 | 1002.0 |
| 20260904144602 | 69 | 150 | 14.0 | 19.0 | 0.00 | 0.00 | 0.00 | 34 | 1001.9 |
| 20260904144044 | 69 | 145 | 12.0 | 24.0 | 0.00 | 0.00 | 0.00 | 34 | 1001.8 |
| 20260904143544 | 68 | 134 | 14.0 | 24.0 | 0.00 | 0.00 | 0.00 | 34 | 1001.9 |
| 20260904143055 | 68 | 143 | 15.0 | 24.0 | 0.00 | 0.00 | 0.00 | 34 | 1001.8 |
| 20260904142544 | 67 | 135 | 17.0 | 24.0 | 0.00 | 0.00 | 0.00 | 33 | 1001.9 |
| 20260904142042 | 67 | 116 | 13.0 | 18.0 | 0.00 | 0.00 | 0.00 | 34 | 1002.0 |
| 20260904141542 | 67 | 122 | 12.0 | 20.0 | 0.00 | 0.00 | 0.00 | 34 | 1001.9 |
| 20260904141044 | 67 | 134 | 11.0 | 21.0 | 0.00 | 0.00 | 0.00 | 34 | 1001.9 |
| 20260904140543 | 67 | 130 | 15.0 | 19.0 | 0.00 | 0.00 | 0.00 | 33 | 1001.9 |
| 20260904140041 | 67 | 153 | 13.0 | 20.0 | 0.00 | 0.00 | 0.00 | 32 | 1001.9 |
| 20260904135541 | 67 | 143 | 12.0 | 19.0 | 0.00 | 0.00 | 0.00 | 30 | 1001.8 |
| 20260904135041 | 66 | 136 | 12.0 | 19.0 | 0.00 | 0.00 | 0.00 | 32 | 1001.7 |
| 20260904134539 | 65 | 145 | 14.0 | 20.0 | 0.00 | 0.00 | 0.00 | 32 | 1001.7 |
| 20260904134038 | 64 | 131 | 13.0 | 19.0 | 0.00 | 0.00 | 0.00 | 33 | 1001.7 |
| 20260904133541 | 64 | 124 | 15.0 | 19.0 | 0.00 | 0.00 | 0.00 | 32 | 1001.5 |
| 20260904133038 | 63 | 136 | 12.0 | 17.0 | 0.00 | 0.00 | 0.00 | 31 | 1001.5 |
| 20260904132537 | 63 | 151 | 10.0 | 20.0 | 0.00 | 0.00 | 0.00 | 32 | 1001.5 |
| 20260904132038 | 63 | 124 | 14.0 | 20.0 | 0.00 | 0.00 | 0.00 | 32 | 1001.5 |
| 20260904131535 | 63 | 139 | 13.0 | 20.0 | 0.00 | 0.00 | 0.00 | 33 | 1001.5 |
| 20260904131034 | 63 | 126 | 10.0 | 14.0 | 0.00 | 0.00 | 0.00 | 33 | 1001.4 |
| 20260904130533 | 63 | 163 | 9.0 | 16.0 | 0.00 | 0.00 | 0.00 | 31 | 1001.4 |
| 20260904130032 | 63 | 153 | 10.0 | 15.0 | 0.00 | 0.00 | 0.00 | 31 | 1001.4 |
| 20260904125531 | 64 | 143 | 11.0 | 15.0 | 0.00 | 0.00 | 0.00 | 31 | 1001.3 |
| 20260904125030 | 65 | 131 | 11.0 | 18.0 | 0.00 | 0.00 | 0.00 | 30 | 1001.3 |
| 20260904124529 | 65 | 170 | 13.0 | 20.0 | 0.00 | 0.00 | 0.00 | 30 | 1001.3 |
| 20260904124027 | 65 | 130 | 13.0 | 20.0 | 0.00 | 0.00 | 0.00 | 30 | 1001.2 |
| 20260904123528 | 66 | 134 | 12.0 | 22.0 | 0.00 | 0.00 | 0.00 | 29 | 1001.1 |
| 20260904123028 | 67 | 133 | 13.0 | 22.0 | 0.00 | 0.00 | 0.00 | 29 | 1001.1 |
| 20260904122530 | 67 | 110 | 14.0 | 22.0 | 0.00 | 0.00 | 0.00 | 28 | 1001.1 |
| 20260904122026 | 68 | 131 | 15.0 | 22.0 | 0.00 | 0.00 | 0.00 | 28 | 1001.0 |
| 20260904121526 | 67 | 134 | 13.0 | 20.0 | 0.00 | 0.00 | 0.00 | 29 | 1001.0 |
| 20260904121027 | 66 | 148 | 13.0 | 24.0 | 0.00 | 0.00 | 0.00 | 30 | 1000.9 |
| 20260904120524 | 65 | 208 | 13.0 | 18.0 | 0.00 | 0.00 | 0.00 | 29 | 1001.0 |
| 20260904120024 | 65 | 154 | 12.0 | 18.0 | 0.00 | 0.00 | 0.00 | 29 | 1001.1 |
| 20260904115523 | 65 | 151 | 11.0 | 18.0 | 0.00 | 0.00 | 0.00 | 29 | 1001.2 |
| 20260904115023 | 64 | 161 | 12.0 | 16.0 | 0.00 | 0.00 | 0.00 | 29 | 1001.2 |
| 20260904114521 | 65 | 147 | 10.0 | 17.0 | 0.00 | 0.00 | 0.00 | 29 | 1001.2 |
| 20260904114021 | 65 | 161 | 12.0 | 17.0 | 0.00 | 0.00 | 0.00 | 29 | 1001.2 |
| 20260904113521 | 65 | 145 | 11.0 | 17.0 | 0.00 | 0.00 | 0.00 | 29 | 1001.2 |
| 20260904113020 | 65 | 149 | 10.0 | 17.0 | 0.00 | 0.00 | 0.00 | 28 | 1001.1 |
| 20260904112517 | 66 | 160 | 10.0 | 16.0 | 0.00 | 0.00 | 0.00 | 27 | 1001.2 |
| 20260904112017 | 67 | 142 | 13.0 | 23.0 | 0.00 | 0.00 | 0.00 | 27 | 1001.2 |
| 20260904111516 | 67 | 155 | 12.0 | 23.0 | 0.00 | 0.00 | 0.00 | 26 | 1001.1 |
| 20260904111016 | 67 | 145 | 13.0 | 19.0 | 0.00 | 0.00 | 0.00 | 27 | 1001.1 |
| 20260904110515 | 67 | 161 | 13.0 | 21.0 | 0.00 | 0.00 | 0.00 | 27 | 1001.2 |
| 20260904110015 | 68 | 166 | 14.0 | 21.0 | 0.00 | 0.00 | 0.00 | 26 | 1001.3 |
| 20260904105515 | 69 | 142 | 12.0 | 29.0 | 0.00 | 0.00 | 0.00 | 26 | 1001.1 |
| 20260904105014 | 69 | 148 | 15.0 | 25.0 | 0.00 | 0.00 | 0.00 | 26 | 1001.2 |
| 20260904104514 | 69 | 147 | 15.0 | 21.0 | 0.00 | 0.00 | 0.00 | 27 | 1001.1 |
| 20260904104013 | 69 | 152 | 13.0 | 22.0 | 0.00 | 0.00 | 0.00 | 27 | 1001.1 |
| 20260904103513 | 68 | 142 | 17.0 | 27.0 | 0.00 | 0.00 | 0.00 | 25 | 1001.1 |
| 20260904103013 | 69 | 165 | 15.0 | 27.0 | 0.00 | 0.00 | 0.00 | 26 | 1001.1 |
| 20260904102512 | 69 | 129 | 18.0 | 25.0 | 0.00 | 0.00 | 0.00 | 26 | 1001.2 |
| 20260904102013 | 70 | 142 | 14.0 | 21.0 | 0.00 | 0.00 | 0.00 | 25 | 1001.2 |
| 20260904101512 | 69 | 136 | 12.0 | 23.0 | 0.00 | 0.00 | 0.00 | 26 | 1001.1 |
| 20260904101012 | 69 | 128 | 14.0 | 25.0 | 0.00 | 0.00 | 0.00 | 25 | 1001.1 |
| 20260904100512 | 70 | 170 | 10.0 | 25.0 | 0.00 | 0.00 | 0.00 | 24 | 1001.1 |
| 20260904100012 | 70 | 174 | 13.0 | 21.0 | 0.00 | 0.00 | 0.00 | 24 | 1001.1 |
| 20260904095512 | 69 | 151 | 14.0 | 19.0 | 0.00 | 0.00 | 0.00 | 26 | 1001.1 |
| 20260904095013 | 69 | 147 | 13.0 | 19.0 | 0.00 | 0.00 | 0.00 | 25 | 1001.1 |
| 20260904094514 | 69 | 165 | 14.0 | 19.0 | 0.00 | 0.00 | 0.00 | 25 | 1001.1 |
| 20260904094010 | 69 | 156 | 12.0 | 20.0 | 0.00 | 0.00 | 0.00 | 25 | 1001.2 |
| 20260904093510 | 69 | 138 | 13.0 | 21.0 | 0.00 | 0.00 | 0.00 | 25 | 1001.2 |
| 20260904093009 | 69 | 142 | 12.0 | 20.0 | 0.00 | 0.00 | 0.00 | 26 | 1001.1 |
| 20260904092509 | 68 | 130 | 13.0 | 19.0 | 0.00 | 0.00 | 0.00 | 26 | 1001.2 |
| 20260904092008 | 68 | 168 | 12.0 | 17.0 | 0.00 | 0.00 | 0.00 | 26 | 1001.2 |
| 20260904091523 | 69 | 138 | 11.0 | 17.0 | 0.00 | 0.00 | 0.00 | 26 | 1001.1 |
| 20260904091007 | 69 | 158 | 13.0 | 20.0 | 0.00 | 0.00 | 0.00 | 24 | 1001.1 |
| 20260904090509 | 69 | 154 | 16.0 | 21.0 | 0.00 | 0.00 | 0.00 | 25 | 1001.1 |
| 20260904090013 | 69 | 135 | 15.0 | 20.0 | 0.00 | 0.00 | 0.00 | 25 | 1001.1 |
| 20260904085507 | 70 | 124 | 14.0 | 25.0 | 0.00 | 0.00 | 0.00 | 25 | 1001.2 |
| 20260904085011 | 70 | 132 | 18.0 | 25.0 | 0.00 | 0.00 | 0.00 | 24 | 1001.1 |
| 20260904084610 | 70 | 132 | 15.0 | 24.0 | 0.00 | 0.00 | 0.00 | 24 | 1001.1 |
| 20260904084008 | 71 | 130 | 17.0 | 24.0 | 0.00 | 0.00 | 0.00 | 23 | 1001.1 |
| 20260904083504 | 71 | 128 | 15.0 | 26.0 | 0.00 | 0.00 | 0.00 | 23 | 1001.0 |
| 20260904083009 | 72 | 138 | 16.0 | 27.0 | 0.00 | 0.00 | 0.00 | 23 | 1001.0 |
| 20260904082503 | 72 | 119 | 13.0 | 27.0 | 0.00 | 0.00 | 0.00 | 22 | 1000.8 |
| 20260904082005 | 72 | 122 | 18.0 | 29.0 | 0.00 | 0.00 | 0.00 | 22 | 1000.9 |
| 20260904081505 | 71 | 113 | 22.0 | 29.0 | 0.00 | 0.00 | 0.00 | 22 | 1000.8 |
| 20260904081002 | 70 | 116 | 14.0 | 22.0 | 0.00 | 0.00 | 0.00 | 24 | 1000.9 |
| 20260904080514 | 71 | 140 | 15.0 | 24.0 | 0.00 | 0.00 | 0.00 | 23 | 1001.0 |
| 20260904080003 | 71 | 143 | 14.0 | 25.0 | 0.00 | 0.00 | 0.00 | 23 | 1000.9 |
| 20260904075501 | 71 | 153 | 17.0 | 26.0 | 0.00 | 0.00 | 0.00 | 23 | 1000.9 |
| 20260904075102 | 71 | 146 | 16.0 | 26.0 | 0.00 | 0.00 | 0.00 | 23 | 1001.0 |
| 20260904074609 | 71 | 120 | 16.0 | 26.0 | 0.00 | 0.00 | 0.00 | 24 | 1000.8 |
| 20260904074059 | 70 | 160 | 19.0 | 24.0 | 0.00 | 0.00 | 0.00 | 23 | 1000.8 |
| 20260904073557 | 70 | 134 | 16.0 | 25.0 | 0.00 | 0.00 | 0.00 | 24 | 1000.8 |
| 20260904073057 | 69 | 146 | 14.0 | 22.0 | 0.00 | 0.00 | 0.00 | 25 | 1000.8 |
| 20260904072556 | 69 | 127 | 15.0 | 22.0 | 0.00 | 0.00 | 0.00 | 25 | 1000.9 |
| 20260904072055 | 69 | 143 | 15.0 | 21.0 | 0.00 | 0.00 | 0.00 | 25 | 1000.8 |
| 20260904071623 | 68 | 127 | 14.0 | 19.0 | 0.00 | 0.00 | 0.00 | 27 | 1000.7 |
| 20260904071054 | 69 | 153 | 11.0 | 25.0 | 0.00 | 0.00 | 0.00 | 26 | 1000.6 |
| 20260904070554 | 70 | 151 | 17.0 | 25.0 | 0.00 | 0.00 | 0.00 | 25 | 1000.5 |
| 20260904070106 | 70 | 143 | 16.0 | 22.0 | 0.00 | 0.00 | 0.00 | 25 | 1000.5 |
| 20260904065551 | 71 | 137 | 13.0 | 26.0 | 0.00 | 0.00 | 0.00 | 24 | 1000.5 |
| 20260904065051 | 71 | 138 | 17.0 | 26.0 | 0.00 | 0.00 | 0.00 | 24 | 1000.5 |
| 20260904064604 | 72 | 138 | 16.0 | 22.0 | 0.00 | 0.00 | 0.00 | 24 | 1000.5 |
| 20260904064052 | 71 | 136 | 15.0 | 20.0 | 0.00 | 0.00 | 0.00 | 23 | 1000.6 |
| 20260904063550 | 72 | 164 | 10.0 | 23.0 | 0.00 | 0.00 | 0.00 | 22 | 1000.6 |
| 20260904063054 | 72 | 138 | 15.0 | 23.0 | 0.00 | 0.00 | 0.00 | 22 | 1000.6 |
| 20260904062551 | 72 | 136 | 14.0 | 22.0 | 0.00 | 0.00 | 0.00 | 23 | 1000.6 |
| 20260904062047 | 72 | 153 | 14.0 | 22.0 | 0.00 | 0.00 | 0.00 | 23 | 1000.5 |
| 20260904061547 | 72 | 165 | 14.0 | 21.0 | 0.00 | 0.00 | 0.00 | 23 | 1000.5 |
| 20260904061047 | 72 | 134 | 15.0 | 21.0 | 0.00 | 0.00 | 0.00 | 23 | 1000.6 |
| 20260904060545 | 71 | 144 | 13.0 | 20.0 | 0.00 | 0.00 | 0.00 | 24 | 1000.5 |
| 20260904060044 | 70 | 153 | 14.0 | 19.0 | 0.00 | 0.00 | 0.00 | 27 | 1000.5 |
| 20260904055544 | 69 | 145 | 12.0 | 20.0 | 0.00 | 0.00 | 0.00 | 26 | 1000.6 |